{"data":{"norad_id":56759,"epoch":"2026-05-25T04:21:36.217152Z","epoch_age_seconds":69765,"freshness":"FRESH","line1":"1 56759U 23076A   26145.18166918 -.00000337  00000+0  00000+0 0  9990","line2":"2 56759   2.2185 245.3582 0003395  47.7257 144.5850  1.00276858 10884","mean_motion":1.00276858,"eccentricity":0.0003395,"inclination_deg":2.2185,"raan_deg":245.3582,"arg_perigee_deg":47.7257,"mean_anomaly_deg":144.585,"bstar":0,"rev_number":1088,"period_min":1436.0242519765,"perigee_km":35770.858431388,"apogee_km":35799.487318794,"semimajor_km":42163.309875091,"source":"CELESTRAK","updated_at":"2026-05-25T13:38:23.597442Z"}}